Flight Track Log - Related Links

Times and Time Zones

All times are in EDT time to prevent confusion due to time zone crossing. See the SKW6398 flight status page for this flight to view local times or setup timezone preferences in your user account.

Time Position Orientation Groundspeed Altitude Reporting Facility
EDT Latitude Longitude Course Direction KTS MPH feet Rate Location/Type
Fri 12:19:14 AM 37.6639 -122.3228 41° Northeast 207 238 3,400  Level Oakland Center
Fri 12:20:15 AM 37.7106 -122.2519 50° Northeast 254 292 6,100 2,852 Climbing Oakland Center
Fri 12:21:00 AM 38.0521 -121.9288 33° Northeast  Level FlightAware Approximate
Fri 12:21:16 AM 37.7692 -122.1844 42° Northeast 284 327 9,200  Level Oakland Center
Fri 12:22:00 AM 38.1648 -121.8185 38° Northeast  Level FlightAware Approximate
Fri 12:22:17 AM 37.8375 -122.1222 36° Northeast 299 344 11,700  Level Oakland Center
Fri 12:23:00 AM 38.2747 -121.7035 41° Northeast  Level FlightAware Approximate
Fri 12:23:18 AM 37.9139 -122.0517 36° Northeast 341 392 14,500  Level Oakland Center
Fri 12:24:00 AM 38.3828 -121.5854 41° Northeast  Level FlightAware Approximate
Fri 12:24:20 AM 37.9931 -121.9769 37° Northeast 352 405 16,900  Level Oakland Center
Fri 12:25:21 AM 38.0744 -121.9008 36° Northeast 361 415 19,800 2,803 Climbing Oakland Center
Fri 12:26:22 AM 38.1736 -121.8081 36° Northeast 367 422 22,600 2,410 Climbing Oakland Center
Fri 12:27:23 AM 38.2597 -121.7286 36° Northeast 380 437 24,700 1,967 Climbing Oakland Center
Fri 12:28:24 AM 38.3467 -121.6469 36° Northeast 387 445 26,600 1,623 Climbing Oakland Center
Fri 12:29:25 AM 38.4250 -121.5736 36° Northeast 393 452 28,000 1,659 Climbing Oakland Center
Fri 12:30:27 AM 38.5294 -121.4764 36° Northeast 408 470 30,000 1,707 Climbing Oakland Center
Fri 12:31:28 AM 38.6222 -121.3872 37° Northeast 415 478 31,500 1,377 Climbing Oakland Center
Fri 12:32:29 AM 38.7103 -121.3014 37° Northeast 417 480 32,800 1,328 Climbing Oakland Center
Fri 12:33:30 AM 38.8072 -121.2100 36° Northeast 423 487 34,200 1,377 Climbing Oakland Center
Fri 12:34:31 AM 38.9222 -121.0994 37° Northeast 427 491 35,600 1,082 Climbing Oakland Center
Fri 12:35:32 AM 39.0208 -121.0058 36° Northeast 437 503 36,400 683 Climbing Oakland Center
Fri 12:36:34 AM 39.1206 -120.9094 37° Northeast 443 510 37,000 293 Climbing Oakland Center
Fri 12:37:35 AM 39.2239 -120.8078 37° Northeast 462 532 37,000  Level Oakland Center
Fri 12:38:36 AM 39.3283 -120.7069 37° Northeast 467 537 37,000  Level Oakland Center
Fri 12:39:37 AM 39.4317 -120.6064 37° Northeast 467 537 37,000  Level Oakland Center
Fri 12:40:38 AM 39.5344 -120.5050 37° Northeast 466 536 37,000  Level Oakland Center
Fri 12:41:39 AM 39.6394 -120.4022 37° Northeast 468 539 37,000  Level Oakland Center
Fri 12:42:41 AM 39.7447 -120.2981 37° Northeast 473 544 37,000  Level Oakland Center
Fri 12:43:42 AM 39.8519 -120.1939 37° Northeast 476 548 37,000  Level Oakland Center
Fri 12:44:43 AM 39.9769 -120.0697 37° Northeast 481 554 37,000  Level Oakland Center
Fri 12:45:44 AM 40.0819 -119.9639 38° Northeast 478 550 37,000  Level Oakland Center
Fri 12:46:45 AM 40.1853 -119.8614 37° Northeast 470 541 37,000  Level Oakland Center
Fri 12:47:46 AM 40.2892 -119.7558 38° Northeast 470 541 37,000  Level Oakland Center
Fri 12:48:47 AM 40.3967 -119.6478 37° Northeast 481 554 37,000  Level Oakland Center
Fri 12:49:48 AM 40.5014 -119.5408 38° Northeast 481 554 37,000  Level Oakland Center
Fri 12:50:49 AM 40.6022 -119.4394 37° Northeast 481 554 37,000  Level Oakland Center
Fri 12:51:50 AM 40.7122 -119.3250 38° Northeast 479 551 37,000  Level Oakland Center
Fri 12:52:51 AM 40.8225 -119.2114 38° Northeast 475 547 37,000  Level Oakland Center
Fri 12:53:52 AM 40.9231 -119.1078 38° Northeast 476 548 37,000  Level Oakland Center
Fri 12:54:53 AM 41.0236 -119.0050 38° Northeast 475 547 37,000  Level Oakland Center
Fri 12:55:54 AM 41.1372 -118.8853 38° Northeast 473 544 37,000  Level Oakland Center
Fri 12:56:55 AM 41.2369 -118.7819 38° Northeast 473 544 37,000  Level Oakland Center
Fri 12:58:06 AM 41.3697 -118.6442 38° Northeast 474 545 37,000  Level Salt Lake Center
Fri 12:59:07 AM 41.4672 -118.5408 38° Northeast 473 544 37,000  Level Salt Lake Center
Fri 01:00:08 AM 41.5650 -118.4367 39° Northeast 469 540 37,000  Level Salt Lake Center
Fri 01:01:09 AM 41.6789 -118.3172 38° Northeast 469 540 37,000  Level Salt Lake Center
Fri 01:02:09 AM 41.7772 -118.2122 39° Northeast 469 540 37,000  Level Salt Lake Center
Fri 01:03:10 AM 41.8756 -118.1075 38° Northeast 469 540 37,000  Level Salt Lake Center
Fri 01:04:11 AM 41.9736 -118.0008 39° Northeast 470 541 37,000  Level Salt Lake Center
Fri 01:05:12 AM 42.0889 -117.8764 39° Northeast 471 542 37,000  Level Salt Lake Center
Fri 01:06:13 AM 42.1875 -117.7697 39° Northeast 472 543 37,000  Level Salt Lake Center
Fri 01:07:14 AM 42.2847 -117.6556 41° Northeast 485 558 37,000 -149 Level Salt Lake Center
Fri 01:08:14 AM 42.3872 -117.5439 39° Northeast 478 550 36,700 -1,686 Descending Salt Lake Center
Fri 01:09:15 AM 42.5164 -117.4036 39° Northeast 496 571 33,600 -2,754 Descending Salt Lake Center
Fri 01:10:16 AM 42.6244 -117.2836 39° Northeast 503 579 31,100 -2,656 Descending Salt Lake Center
Fri 01:11:17 AM 42.7278 -117.1697 39° Northeast 482 555 28,200 -2,902 Descending Salt Lake Center
Fri 01:12:18 AM 42.8281 -117.0578 39° Northeast 472 543 25,200 -2,975 Descending Salt Lake Center
Fri 01:13:18 AM 42.9250 -116.9500 39° Northeast 452 520 22,200 -2,800 Descending Salt Lake Center
Fri 01:14:18 AM 43.0178 -116.8483 39° Northeast 430 495 19,600 -2,643 Descending Salt Lake Center
Fri 01:14:42 AM 43.0533 -116.8089 39° Northeast 423 487 18,500 -2,710 Descending Salt Lake Center
Fri 01:15:20 AM 43.1097 -116.7422 41° Northeast 420 483 16,800 -2,836 Descending Salt Lake Center
Fri 01:15:37 AM 43.1394 -116.7100 38° Northeast 411 473 15,900 -2,361 Descending Salt Lake Center
Fri 01:16:21 AM 43.2003 -116.6392 40° Northeast 406 467 14,400 -2,100 Descending Salt Lake Center
Fri 01:16:37 AM 43.2222 -116.6150 39° Northeast 388 447 13,800 -1,481 Descending Salt Lake Center
Fri 01:17:38 AM 43.3033 -116.5231 40° Northeast 364 419 12,500 -1,200 Descending Salt Lake Center
Fri 01:18:22 AM 43.3550 -116.4625 40° Northeast 344 396 11,700 -1,279 Descending Salt Lake Center
Fri 01:18:39 AM 43.3722 -116.4444 37° Northeast 328 377 11,200 -1,279 Descending Salt Lake Center
Fri 01:19:23 AM 43.4200 -116.3889 40° Northeast 316 364 10,400 -1,100 Descending Salt Lake Center
Fri 01:19:39 AM 43.4408 -116.3658 39° Northeast 291 335 10,100 -1,377 Descending Salt Lake Center
Fri 01:20:24 AM 43.4597 -116.2950 70° East 297 342 9,000 -1,377 Descending Salt Lake Center
Fri 01:20:40 AM 43.4575 -116.2647 96° East 286 329 8,700 -1,000 Descending Salt Lake Center
Fri 01:21:24 AM 43.4503 -116.1933 98° East 284 327 8,000 -1,000 Descending Salt Lake Center
Fri 01:21:40 AM 43.4456 -116.1625 102° East 272 313 7,700 -984 Descending Salt Lake Center
Fri 01:22:25 AM 43.4350 -116.0869 101° East 275 316 7,000 -590 Descending Salt Lake Center
Fri 01:22:41 AM 43.4258 -116.0631 118° Southeast 283 326 7,100  Climbing Salt Lake Center
Fri 01:23:26 AM 43.4019 -115.9928 115° Southeast 282 325 7,000 -98 Descending Salt Lake Center
Fri 01:23:42 AM 43.3928 -115.9631 113° Southeast 261 300 7,000  Level Salt Lake Center
Fri 01:24:26 AM 43.3894 -115.9039 94° East 239 275 7,000  Level Salt Lake Center
Fri 01:24:42 AM 43.4047 -115.8933 27° Northeast 216 249 7,000 -98 Level Salt Lake Center
Fri 01:25:27 AM 43.4414 -115.9058 346° North 187 215 6,900 -197 Descending Salt Lake Center
Fri 01:25:43 AM 43.4519 -115.9139 331° Northwest 167 192 6,800 -400 Descending Salt Lake Center
Fri 01:26:27 AM 43.4689 -115.9453 307° West 152 175 6,500 -500 Descending Salt Lake Center
Fri 01:26:43 AM 43.4708 -115.9542 287° West 120 138 6,300 -492 Descending Salt Lake Center
Fri 01:27:28 AM 43.4825 -115.9844 298° West 113 130 6,000 -295 Descending Salt Lake Center
Fri 01:27:44 AM 43.4853 -115.9933 293° West 104 120 6,000 -295 Level Salt Lake Center
Fri 01:28:29 AM 43.4953 -116.0197 298° West 108 124 5,700 -492 Descending Salt Lake Center
Fri 01:28:45 AM 43.4997 -116.0322 296° West 108 124 5,500 -700 Descending Salt Lake Center
Fri 01:29:29 AM 43.5083 -116.0600 293° West 108 124 5,000 -700 Descending Salt Lake Center
Fri 01:29:45 AM 43.5133 -116.0686 309° West 113 130 4,800 -689 Descending Salt Lake Center
Fri 01:30:30 AM 43.5219 -116.0975 292° West 110 127 4,300 -689 Descending Salt Lake Center
Fri 01:30:46 AM 43.5261 -116.1114 292° West 115 132 4,100 -400 Descending Salt Lake Center
Fri 01:31:30 AM 43.5356 -116.1392 295° West 111 128 3,900 -364 Descending Salt Lake Center
Fri 01:31:52 AM 43.5411 -116.1533 298° West 116 133 3,700 -295 Descending Salt Lake Center
Fri 01:32:31 AM 43.5481 -116.1733 296° West 113 130 3,600 -154 Descending Salt Lake Center

Login

Don't have an account? Register now (free) for customized features, flight alerts, and more!